RH
2 2 3 3 3 4 4 4 5 5 5 5 5 4 4 4 4 3 3 3 3 3 3 3 3 3 4 3 4 4 4 4 4 4 4 5 4 4 5 4 4 4 4 4 4 4 4 5 4 5 5 5 5 5 6 6 6 6 6 7 6 6 6 6 7 7 7 7 7 8 10 11 12 14 15 15 15 15 14 12 11 11 11 12 13 12 12 12
2 2 2 3 3 4 4 4 4 5 5 5 5 5 5 4 4 4 3 3 3 3 3 3 4 4 4 4 4 4 4 4 4 4 4 5 5 5 5 4 5 4 4 5 4 5 5 5 5 5 5 5 5 5 6 6 6 7 7 7 6 6 7 7 8 8 8 8 8 8 9 9 10 11 13 13 13 12 11 11 11 12 12 12 12 11 11 11
3 3 3 3 3 3 4 4 4 4 5 5 5 5 5 5 4 4 4 3 3 3 3 3 4 4 4 4 4 4 4 5 4 5 6 6 6 6 6 5 5 5 5 5 5 5 5 5 5 5 5 5 5 6 6 6 7 7 7 7 6 6 7 7 8 9 9 9 9 9 9 9 10 10 11 11 11 10 10 12 12 12 12 11 10 10 10 10
11 10 9 8 7 6 5 4 3 3 3 4 4 4 4 5 5 5 4 4 4 3 3 3 4 4 4 4 4 5 4 5 5 6 7 6 6 6 6 5 5 5 5 5 5 5 5 5 6 5 6 6 6 7 6 7 7 7 7 7 7 7 8 8 8 9 9 10 9 9 9 10 10 10 10 10 10 10 11 13 12 11 11 10 10 10 10 10
27 25 23 21 19 17 16 12 10 9 9 7 6 5 4 5 4 5 5 4 4 3 4 3 3 4 4 4 4 5 4 5 6 6 6 5 6 5 5 6 5 6 5 6 6 6 6 6 6 6 7 7 7 8 8 8 8 8 8 8 8 8 8 9 9 10 10 10 10 10 10 10 10 10 10 10 10 10 12 12 11 11 11 11 11 11 11 11
33 33 32 31 29 28 27 24 23 23 22 19 15 12 10 9 6 6 6 5 5 4 4 4 4 4 3 4 4 5 5 5 6 6 6 5 6 6 6 6 6 7 6 7 7 7 7 7 8 8 8 9 9 9 9 9 10 9 9 9 9 9 10 10 10 11 11 10 10 10 10 10 10 10 10 10 10 12 13 12 12 12 12 12 12 12 13 14
29 31 30 31 31 30 31 29 30 29 28 27 24 22 20 19 15 12 10 7 6 4 5 4 4 5 4 5 5 5 6 5 6 6 6 6 7 6 6 7 7 8 8 8 8 8 9 9 9 9 9 10 10 11 11 11 11 10 10 10 10 10 10 10 10 10 10 10 10 10 9 9 9 10 9 10 11 12 13 13 14 15 15 14 13 14 14 16
26 27 26 27 27 26 28 27 27 27 27 27 27 27 25 25 24 20 17 14 11 6 5 5 5 5 5 5 6 6 6 6 7 7 7 7 7 7 7 8 8 8 9 9 9 9 10 10 10 11 11 11 11 11 11 11 11 11 10 10 10 10 10 10 10 10 10 10 10 10 9 9 9 10 9 10 11 12 14 15 16 17 16 16 16 16 16 18
34 33 32 31 30 27 27 25 26 25 25 25 25 27 27 27 27 24 22 18 16 12 7 6 6 5 5 5 6 6 6 6 6 7 7 7 7 8 7 8 9 9 9 9 10 10 10 11 11 11 11 11 12 11 11 11 11 11 10 10 10 10 10 10 10 10 10 10 11 10 9 9 9 10 11 12 12 14 15 17 18 18 17 18 18 18 18 18
39 40 40 39 39 36 35 34 33 31 30 29 27 28 29 29 29 26 24 20 18 17 12 8 7 7 6 5 5 5 6 6 6 7 7 7 7 8 8 8 9 9 10 10 10 11 11 11 12 12 12 12 12 11 11 11 11 11 10 10 10 10 10 9 10 9 10 10 10 9 9 10 10 12 14 14 15 16 17 18 19 18 18 19 19 19 20 21
38 39 41 41 42 41 42 43 43 43 40 37 34 34 34 34 33 30 28 24 21 21 17 12 8 8 8 6 6 6 6 6 6 7 6 7 7 8 9 9 9 10 10 11 11 11 11 12 12 12 12 11 11 11 10 10 10 10 9 9 9 10 10 9 9 9 9 10 10 10 10 11 13 15 16 16 16 17 18 19 19 20 20 20 21 21 22 23
39 40 42 40 41 42 46 46 44 44 44 43 39 37 36 34 33 30 29 28 24 23 20 15 11 9 9 7 7 7 6 6 6 6 7 7 8 8 9 9 10 10 10 11 11 11 11 10 10 10 10 10 10 9 9 10 9 9 9 9 9 10 10 9 10 10 10 11 12 13 13 15 18 18 17 16 15 15 16 18 20 21 21 22 23 23 24 26
44 45 42 36 39 43 43 38 30 30 32 32 30 28 27 25 25 24 24 23 21 21 19 15 12 9 8 8 8 7 6 6 6 7 7 7 8 8 9 9 10 10 10 11 10 10 9 9 8 8 8 8 8 8 9 9 9 10 10 10 10 10 11 11 12 12 13 14 15 16 16 19 20 18 17 16 14 14 17 20 21 23 23 24 24 24 26 29
47 48 39 30 35 40 37 31 25 24 25 25 24 22 20 19 20 20 19 17 15 15 13 11 10 8 8 8 8 7 6 6 6 7 7 7 8 8 8 9 9 10 10 9 9 9 8 8 8 8 8 8 9 9 10 10 11 12 11 12 12 12 13 13 13 14 14 15 17 18 19 20 19 18 18 18 17 16 19 22 23 24 24 25 25 26 29 32
47 46 39 29 31 35 34 33 31 29 28 27 26 20 16 15 15 14 14 14 12 11 10 9 8 7 8 7 7 8 7 7 6 7 8 8 8 9 9 9 9 9 9 9 9 9 9 9 9 9 9 9 10 10 12 13 13 12 12 13 13 13 14 14 15 15 16 17 19 21 21 21 21 21 22 22 21 20 20 22 23 24 26 27 28 29 32 34
43 40 39 34 32 33 34 35 33 31 28 27 25 18 14 15 13 11 9 10 9 9 9 9 8 8 8 9 10 11 10 9 8 8 8 9 9 10 10 10 10 10 10 9 9 9 9 9 10 10 11 11 12 12 13 13 13 13 14 14 15 15 14 16 18 17 17 19 21 22 23 23 23 22 22 23 23 23 23 24 25 27 29 30 31 32 33 36
41 36 37 37 36 35 34 34 33 30 27 24 20 14 13 16 15 13 11 10 9 8 8 9 9 9 10 13 14 14 13 12 12 11 10 10 10 10 10 9 9 9 9 9 9 9 9 10 11 11 11 12 13 13 13 13 13 14 14 15 15 17 18 19 18 17 19 21 22 23 22 21 21 20 19 20 21 23 25 26 27 30 32 33 35 36 38 41
32 29 30 31 31 32 31 30 28 25 22 19 15 11 10 13 13 12 12 11 11 10 10 10 9 9 11 12 12 11 11 11 11 10 10 10 9 9 8 8 8 8 9 9 10 10 10 11 11 11 11 12 11 11 13 15 15 17 19 19 19 20 20 19 19 20 22 22 21 21 20 19 20 20 20 20 20 22 24 26 29 32 35 37 38 40 42 45
14 13 14 16 16 18 20 19 19 17 16 15 12 10 9 9 9 9 9 9 10 10 11 12 11 10 11 10 10 10 10 10 10 9 9 9 9 9 8 9 10 10 10 11 11 11 11 11 10 10 10 10 10 11 14 17 19 22 25 25 23 21 19 19 22 22 22 21 20 20 21 21 22 22 22 21 20 22 23 25 28 31 33 34 35 38 40 43
6 6 6 7 7 9 11 11 12 12 12 12 11 10 10 9 8 7 6 7 8 9 12 14 14 13 12 12 12 12 11 11 11 11 11 11 11 11 11 12 12 11 11 11 11 10 10 9 9 9 9 11 12 14 16 18 20 23 24 23 23 23 20 21 22 22 22 22 22 22 23 23 23 22 22 22 21 22 23 25 27 29 30 31 33 36 39 42
8 7 6 7 7 8 9 9 10 10 10 11 10 10 9 8 7 6 6 7 9 13 16 16 16 15 15 14 15 15 13 12 12 11 12 12 13 14 13 13 11 10 10 10 9 9 9 9 9 10 12 13 15 16 17 18 20 21 22 21 22 22 21 22 23 24 24 25 25 25 25 25 25 25 24 24 24 25 26 29 30 31 33 34 37 40 43 45
11 10 8 8 9 9 9 9 9 9 9 10 10 10 9 7 7 5 6 10 14 18 18 16 17 17 18 17 16 15 12 10 9 11 11 12 12 12 12 11 10 9 9 8 8 9 9 10 12 14 14 16 16 17 17 18 19 19 21 22 22 23 24 24 26 26 27 27 26 26 27 29 28 28 26 26 28 30 32 34 34 35 37 39 42 44 46 48
11 9 9 9 10 10 11 11 10 9 8 8 8 8 7 7 5 4 7 14 19 20 18 17 17 18 19 17 13 12 9 7 9 10 10 10 10 10 10 9 8 9 8 9 9 10 11 12 15 16 16 17 17 18 19 19 20 22 23 24 25 27 28 27 26 27 28 28 27 27 30 33 32 31 30 31 33 35 37 38 38 39 41 44 46 48 50 50
14 12 12 12 14 16 18 18 16 13 8 6 6 5 6 6 4 5 11 17 17 16 17 17 16 17 17 13 11 10 8 8 10 9 9 9 9 8 9 8 9 10 10 11 11 12 13 15 16 16 17 17 18 21 22 22 23 25 25 27 28 27 27 28 27 27 27 28 29 31 33 34 34 34 35 36 38 40 42 42 43 44 46 49 51 51 53 53
22 22 19 18 20 22 24 25 23 20 13 8 7 5 5 5 4 8 13 16 16 14 14 14 13 14 13 10 9 8 9 12 11 9 10 10 9 10 10 10 11 12 13 13 13 14 16 16 17 18 18 19 21 23 23 24 24 25 26 27 28 26 26 28 29 29 29 31 34 37 40 40 38 41 43 43 45 47 48 49 49 50 50 52 54 54 55 56
28 29 26 24 25 25 27 26 24 25 19 13 10 7 5 4 7 11 14 17 16 13 13 12 11 11 10 10 9 8 11 12 10 11 12 11 12 12 12 14 14 15 16 14 15 18 18 18 18 19 20 23 24 23 24 27 28 29 28 27 27 28 29 29 30 32 33 35 39 41 45 47 47 52 54 52 54 54 55 56 55 55 55 56 58 60 61 64
29 32 30 28 28 28 30 27 24 26 24 19 13 9 7 5 9 13 14 19 17 12 13 12 10 11 10 10 9 9 12 13 13 14 14 14 15 14 15 16 17 17 17 17 17 19 18 18 19 21 24 26 24 23 29 33 32 30 28 29 30 29 29 29 29 34 36 37 39 39 44 50 53 57 60 60 63 63 60 62 62 61 61 63 66 70 72 76
27 31 31 29 30 31 34 32 27 26 27 25 16 11 9 7 11 12 14 21 18 12 13 11 10 11 11 12 11 12 15 15 15 16 16 16 16 16 16 17 17 17 19 19 18 18 17 17 21 26 27 24 23 28 34 33 30 30 31 31 30 27 28 28 29 34 36 39 42 40 46 54 54 55 57 61 67 69 66 65 66 66 68 72 77 81 83 85
24 30 30 29 30 32 36 35 30 28 30 28 19 11 8 9 13 11 12 18 16 12 13 11 11 13 13 15 15 15 17 17 17 18 17 16 16 16 17 18 17 18 20 20 18 18 17 20 27 28 24 23 27 31 31 29 30 32 31 29 27 28 28 28 32 33 37 48 49 46 50 56 55 51 52 60 67 70 70 68 69 71 74 79 84 87 87 88
23 29 29 28 30 32 35 34 32 30 29 24 16 9 8 10 11 10 13 15 12 12 13 12 14 15 15 17 17 16 18 18 19 20 19 18 19 18 17 18 17 18 20 19 18 18 18 26 32 27 24 27 30 30 29 30 32 31 29 30 29 30 30 32 34 32 43 60 54 44 48 55 59 55 51 58 64 66 71 73 74 75 79 84 87 89 90 93
25 29 28 28 30 33 33 32 30 28 22 15 10 7 7 9 8 9 15 13 10 13 15 14 16 17 16 17 16 16 18 18 18 18 18 18 19 16 15 18 17 17 17 15 18 20 23 31 31 26 28 31 30 30 30 30 31 31 32 33 31 31 33 35 34 34 50 62 49 41 45 52 60 58 53 59 62 65 73 80 81 81 83 87 90 93 96 98
27 28 27 26 30 33 31 30 26 20 13 8 7 6 6 9 9 11 14 13 12 15 16 16 18 17 17 17 16 16 17 18 18 18 18 18 19 17 18 23 23 22 22 20 21 20 24 32 31 27 31 32 31 31 29 30 32 33 34 34 38 47 53 53 53 53 54 49 39 41 47 49 54 54 55 61 64 69 78 85 88 88 89 92 96 99 100 100
30 29 25 24 28 30 28 26 21 13 9 6 6 7 6 8 12 14 17 17 17 18 18 18 19 18 17 16 17 16 16 18 19 20 21 22 23 22 26 31 29 29 31 30 27 22 25 30 28 28 31 34 34 33 32 34 35 37 39 41 47 60 73 78 75 68 60 48 42 47 51 50 51 53 57 61 65 74 81 87 92 94 97 99 100 100 100 100
31 28 24 22 25 26 25 22 15 9 6 5 5 6 6 10 14 17 20 20 20 19 18 19 19 18 17 17 18 18 18 20 21 22 22 22 24 25 29 32 31 31 33 33 33 32 33 34 29 30 34 36 35 35 37 38 38 41 43 46 48 55 67 75 71 66 65 61 52 49 51 51 54 60 61 62 67 75 83 90 96 98 100 101 100 100 100 100
28 25 21 19 21 22 21 15 9 5 4 4 5 5 8 14 17 19 20 20 20 18 17 18 18 17 18 19 21 20 21 22 23 24 23 23 26 29 33 34 32 33 35 37 38 38 37 35 32 34 38 38 36 38 39 38 40 43 43 46 50 53 58 62 63 59 62 71 67 55 54 55 59 64 64 65 71 77 86 96 100 100 101 100 100 100 100 97
24 19 16 17 20 20 15 8 4 4 4 5 6 8 14 18 19 20 20 20 19 17 17 18 18 18 19 20 22 22 22 23 23 24 24 26 29 33 38 38 35 37 40 41 43 43 38 32 33 38 38 37 38 41 43 41 42 45 47 50 52 54 56 59 62 55 59 77 72 54 53 57 60 68 70 70 76 84 94 100 100 100 101 99 100 101 98 92
14 13 15 17 17 13 7 4 5 5 5 6 8 13 18 19 20 20 19 19 19 19 19 19 20 22 21 21 21 21 22 23 23 24 26 29 31 35 40 39 39 41 41 42 44 46 43 34 33 38 37 36 40 43 44 44 45 47 53 55 52 54 57 59 66 70 77 86 72 54 54 56 60 72 79 81 87 95 99 100 100 100 100 99 100 100 94 87
12 14 15 13 9 6 5 6 7 7 8 9 11 15 18 19 19 19 19 20 20 21 21 22 23 24 23 22 22 21 22 23 24 25 28 32 35 38 40 39 41 43 41 41 42 44 45 38 34 36 37 37 40 43 43 44 47 49 54 55 53 58 61 62 71 81 89 92 79 63 57 60 70 78 84 91 97 100 100 99 100 100 99 100 100 95 90 87
13 13 10 6 5 6 7 9 8 9 10 10 12 16 18 18 18 19 20 21 21 22 23 22 23 23 23 23 23 22 24 25 26 27 30 34 37 39 39 38 41 43 41 41 41 40 44 44 37 33 34 35 38 42 45 46 46 46 50 52 55 63 67 68 71 73 79 88 89 79 66 71 89 92 92 98 99 99 100 99 99 99 99 101 97 91 88 88
9 7 6 5 8 9 9 9 10 11 10 10 14 16 17 19 19 21 22 22 22 23 23 22 21 22 22 23 24 23 25 29 28 29 33 36 37 39 39 38 39 40 39 39 39 37 41 46 39 29 29 34 41 48 50 50 51 52 55 60 66 71 72 74 73 67 71 83 90 91 81 80 96 101 98 100 99 99 100 98 97 98 99 98 93 90 89 91
5 6 7 9 10 9 10 10 11 10 9 12 15 16 19 21 21 22 21 21 22 22 22 21 20 22 22 23 24 23 26 30 30 31 34 36 38 39 39 39 40 39 37 37 36 34 38 44 39 31 30 37 48 53 49 51 57 59 62 70 77 80 80 86 85 75 76 82 83 90 90 87 96 101 98 98 99 98 99 98 98 98 98 96 92 92 93 89
6 8 9 10 10 10 11 11 10 10 11 14 16 18 21 21 21 21 19 19 20 20 21 21 20 21 21 22 24 23 24 29 31 32 33 36 38 38 39 42 41 38 35 35 34 33 36 39 34 31 35 41 49 50 47 53 57 55 60 71 79 80 83 92 95 89 87 86 83 90 93 92 97 97 92 91 88 88 94 97 98 100 100 98 95 94 90 79
9 10 10 10 10 11 11 10 10 12 14 16 18 20 21 20 20 19 18 17 17 18 21 20 20 21 21 22 23 22 23 27 31 32 33 36 36 37 41 42 39 37 34 34 35 33 37 38 32 31 33 36 40 43 44 48 51 54 62 71 80 88 91 92 92 92 92 91 93 97 93 92 98 94 87 84 80 86 96 98 99 102 100 99 98 91 79 68
10 10 10 10 11 11 11 11 13 15 16 18 20 20 19 18 18 17 17 16 15 18 20 19 20 21 21 23 23 22 23 26 30 32 33 35 35 37 42 39 36 35 31 31 31 30 37 37 33 43 53 50 46 46 43 41 48 65 74 77 88 96 92 85 82 88 93 92 96 99 93 92 96 91 83 81 82 89 98 99 100 101 99 99 93 77 65 62
10 9 10 10 10 11 11 13 16 17 18 19 18 18 18 18 17 16 16 16 15 17 19 19 20 21 22 22 22 23 23 25 29 32 33 34 34 38 42 36 33 30 27 28 26 26 36 33 30 54 77 78 72 68 63 55 55 64 71 78 91 93 87 84 85 91 95 94 94 97 98 94 89 85 83 80 81 87 93 98 100 100 101 96 81 64 59 62
11 10 10 10 12 14 14 16 18 18 18 18 16 16 17 17 16 16 16 16 16 16 18 19 19 20 21 21 21 22 22 24 28 29 32 33 33 38 40 33 29 27 25 26 21 22 32 29 23 39 60 69 67 61 57 52 47 48 55 70 85 85 81 82 88 95 98 99 96 93 96 92 81 82 87 83 86 92 97 100 99 99 98 86 68 61 63 66
10 10 11 12 14 16 16 18 19 18 17 16 15 16 16 16 16 16 15 16 16 16 18 19 19 20 20 20 21 21 22 24 26 28 31 32 33 37 37 31 26 24 23 22 16 16 23 23 16 18 36 51 46 35 32 34 37 39 47 65 76 71 63 63 81 98 100 101 97 88 91 94 85 85 91 92 97 101 99 99 99 98 91 73 61 62 69 74
9 11 12 13 15 17 18 18 18 18 17 15 14 15 15 15 15 15 14 16 16 17 19 20 20 21 21 21 22 22 22 23 25 27 29 30 32 34 33 29 25 22 21 17 11 10 13 15 10 9 23 36 28 21 24 29 33 37 48 64 64 53 50 59 79 97 98 97 95 85 85 85 75 75 84 92 100 100 96 99 101 94 78 62 60 69 76 79
9 11 13 15 16 17 18 18 19 19 17 15 15 14 14 14 14 14 14 15 16 17 19 21 21 21 22 22 22 23 23 24 26 28 28 30 32 31 28 26 24 21 18 12 7 8 10 11 8 6 16 27 24 21 25 27 32 41 54 60 48 44 63 80 89 97 96 91 86 79 73 66 64 75 88 94 98 99 100 101 93 78 64 62 71 78 78 73
10 12 14 15 15 16 18 18 20 19 16 16 15 14 15 14 13 15 15 14 16 17 19 21 21 21 22 22 22 24 25 26 29 30 29 30 32 29 25 24 23 19 13 7 5 7 8 8 8 8 12 20 24 21 20 24 31 43 54 53 42 53 83 97 96 98 95 85 76 72 68 66 75 89 96 98 101 102 97 86 70 62 66 75 81 80 70 56
12 12 14 15 14 16 18 18 19 18 15 16 17 16 16 14 13 14 15 15 16 17 19 21 21 20 22 22 23 25 26 27 29 30 28 29 31 27 21 20 19 14 8 6 5 5 7 7 8 10 13 17 21 18 14 19 33 48 54 46 42 62 90 101 100 98 91 80 73 75 79 83 89 95 98 100 100 91 74 62 60 69 81 85 80 69 53 40
12 11 13 14 13 15 18 17 17 16 16 17 19 18 16 15 14 14 15 16 17 18 19 21 21 20 21 22 23 25 26 27 29 29 26 26 30 25 16 13 14 10 7 6 5 6 7 7 7 12 14 14 16 16 16 24 38 49 47 38 46 70 90 98 100 96 84 77 79 86 92 95 97 100 100 92 78 65 59 63 75 84 87 82 68 52 38 30
Wind_Speed
11 10 9 9 9 9 9 9 8 9 8 8 8 8 7 7 6 5 4 4 4 3 3 3 2 2 2 2 3 3 4 4 4 5 5 5 6 5 5 6 7 6 6 6 6 7 7 8 8 8 9 9 10 11 11 12 13 14 16 19 21 21 20 19 19 20 20 21 21 21 20 20 20 20 20 21 22 22 22 22 21 20 20 21 21 22 23 23
10 10 9 9 9 9 9 9 9 9 9 8 8 8 7 7 6 5 5 4 4 4 4 3 3 2 2 2 3 3 4 4 5 7 7 7 7 7 7 8 8 7 7 7 7 8 8 9 9 10 10 11 11 12 13 14 14 15 17 20 21 20 20 19 20 21 22 23 22 22 22 22 22 22 22 22 22 22 22 21 20 20 21 22 22 23 23 24
11 10 10 10 9 9 9 9 9 9 9 9 8 8 8 7 7 6 6 5 4 3 3 3 3 4 4 4 4 4 5 5 6 7 6 7 8 8 8 8 8 8 8 8 8 8 9 10 10 11 11 12 12 13 14 15 15 17 19 21 20 19 19 20 21 21 22 23 23 23 23 23 23 22 22 22 22 22 21 19 19 20 21 23 23 23 24 25
13 12 12 11 11 10 10 10 10 10 10 10 9 9 8 8 8 7 7 7 5 4 4 4 4 4 5 5 5 6 7 7 7 6 6 8 8 8 8 8 8 8 8 8 9 9 10 10 11 12 13 13 13 14 15 15 16 18 19 20 20 19 20 20 21 22 23 24 24 24 24 23 23 23 23 23 24 21 19 19 20 21 22 23 24 25 25 26
13 13 12 12 12 12 12 12 12 12 11 11 11 10 10 10 9 9 9 8 7 6 5 5 5 5 5 6 6 7 8 8 7 7 8 9 9 9 8 8 8 8 9 9 9 10 10 11 12 12 13 13 13 14 15 15 16 18 19 19 19 20 21 20 21 23 23 24 24 24 24 23 23 23 23 24 24 21 20 21 21 21 22 24 25 25 25 26
11 11 11 11 11 11 11 12 12 12 12 11 11 11 11 11 10 10 10 10 9 8 7 6 6 6 6 7 7 7 8 8 9 9 9 10 10 10 9 9 9 9 9 10 10 11 11 11 12 12 13 13 13 14 15 15 16 18 19 19 19 20 21 21 22 22 23 24 24 24 24 23 24 25 25 25 22 21 22 22 21 23 24 25 25 25 24 24
8 8 8 9 9 9 9 10 10 10 10 11 11 11 11 11 11 11 11 11 10 10 8 7 7 7 7 7 8 8 8 9 10 10 10 10 10 10 10 10 10 10 10 11 11 12 12 12 12 12 13 13 13 14 15 16 17 19 19 19 20 20 21 22 22 23 24 24 24 24 24 25 26 26 26 24 21 22 24 22 23 24 25 26 25 24 23 21
7 7 7 7 7 8 8 8 9 9 9 10 10 11 11 12 12 12 12 12 12 11 10 8 8 7 8 8 8 9 9 9 10 10 10 10 10 11 10 10 10 11 11 12 12 13 13 12 12 12 13 13 14 14 15 16 17 18 19 19 19 20 21 21 22 23 24 24 24 24 25 27 28 28 27 23 21 23 24 23 24 26 27 26 23 22 21 21
7 8 8 8 8 8 8 8 9 9 10 10 10 11 12 12 13 13 13 13 13 13 12 11 10 9 9 10 9 10 10 10 10 11 11 11 11 12 12 11 11 12 12 13 13 13 13 13 12 12 13 14 14 15 15 16 17 18 18 19 20 20 21 22 23 24 25 25 25 27 28 29 29 29 26 23 21 21 22 23 25 27 26 24 23 22 22 24
8 8 8 9 9 9 10 10 10 10 10 11 11 12 12 13 13 13 13 13 14 14 14 12 12 11 11 11 11 12 12 11 11 12 12 12 12 12 12 12 12 13 13 13 14 13 13 13 13 13 14 14 14 15 16 17 18 19 20 20 21 22 24 24 24 25 25 26 27 29 29 29 29 28 24 21 20 21 22 24 27 27 24 22 23 23 24 25
8 8 8 9 9 10 10 10 11 11 11 11 11 12 13 13 13 14 14 13 14 15 14 13 13 13 12 12 12 13 13 13 13 13 13 13 13 13 13 13 13 13 13 13 14 13 13 13 14 14 14 14 15 16 17 18 19 20 21 22 22 24 25 25 26 26 26 27 27 28 29 30 28 24 20 18 19 21 24 26 27 26 24 24 24 24 25 25
7 8 8 9 9 10 9 10 10 10 10 10 11 12 12 13 13 14 14 14 15 15 15 15 14 14 13 13 13 14 14 14 14 14 14 14 14 14 13 13 14 14 14 14 14 14 14 14 14 15 15 16 18 19 19 19 21 22 23 25 25 25 26 27 26 25 24 24 23 25 26 23 18 17 18 19 20 23 26 26 26 26 25 25 24 24 25 25
7 7 8 8 9 8 7 8 8 8 8 8 9 10 11 12 13 13 14 14 15 15 16 15 15 14 14 13 13 14 14 14 14 15 16 15 14 15 14 14 14 15 14 14 15 15 15 15 16 17 17 19 20 20 21 22 24 24 25 27 28 27 26 24 22 21 21 20 20 21 21 15 15 19 20 19 21 24 25 26 25 26 26 25 25 26 27 27
7 7 7 7 8 6 6 7 7 8 8 8 9 10 11 12 12 13 13 13 14 15 15 15 15 14 14 13 13 14 14 14 14 15 16 16 15 15 15 14 14 15 15 15 16 16 17 18 19 19 20 21 21 22 24 24 25 25 26 27 27 25 23 21 20 21 21 21 20 21 21 19 18 19 17 18 20 22 23 23 24 25 26 26 27 28 28 27
7 7 6 6 6 6 6 7 8 9 9 10 11 12 13 13 13 13 13 13 13 14 14 14 14 13 13 13 13 14 14 14 14 14 15 15 15 15 16 15 14 15 16 16 17 18 19 20 20 21 21 21 22 23 23 24 24 24 25 24 24 24 24 23 22 22 21 20 20 20 21 20 18 20 23 24 24 23 24 25 26 28 28 27 27 28 28 29
6 7 6 6 7 7 7 8 9 10 11 12 13 14 14 12 12 12 12 12 13 13 13 13 12 12 12 13 13 13 14 14 14 14 14 14 14 14 16 16 16 17 17 18 19 19 20 21 21 21 21 21 22 22 23 24 23 21 21 23 25 26 27 26 23 22 22 22 23 22 23 25 26 29 31 29 27 27 28 29 30 30 29 28 29 30 33 34
6 7 7 7 8 8 9 10 11 12 12 13 14 14 13 11 11 11 12 12 12 12 12 12 11 11 11 11 11 12 13 13 14 14 14 14 14 15 16 17 18 18 19 19 20 20 21 21 21 20 20 20 20 20 23 24 22 22 23 25 27 28 28 28 25 25 24 24 24 25 28 29 29 31 31 30 28 28 28 30 31 31 31 32 33 34 35 33
7 8 8 8 8 9 10 11 12 12 13 14 14 13 12 11 12 12 12 12 12 12 11 11 11 10 9 9 12 12 13 13 14 14 14 14 15 16 17 17 18 18 19 19 19 20 20 20 20 19 19 19 20 20 21 23 24 25 25 27 28 28 29 29 27 26 25 25 26 26 28 29 28 28 28 28 27 26 27 28 30 31 32 32 33 34 34 32
7 7 7 8 8 9 9 10 11 12 13 13 13 13 12 11 12 12 13 13 12 12 11 10 11 10 8 10 12 12 12 13 13 14 14 14 15 15 16 16 17 17 18 18 18 18 18 19 19 19 19 19 20 20 20 21 23 23 23 25 26 29 30 27 25 25 25 26 26 24 25 26 26 26 25 27 28 29 29 30 31 31 32 33 34 34 34 33
6 6 6 7 7 8 9 9 10 11 11 11 12 12 10 10 12 13 14 13 12 11 10 10 10 9 8 9 10 11 13 13 13 13 13 13 14 14 14 14 15 16 16 17 18 18 18 19 18 19 19 18 18 19 19 20 21 22 23 24 25 27 28 25 23 24 22 23 23 22 23 26 28 29 29 30 32 32 33 33 32 31 30 31 31 31 31 31
8 9 8 8 7 8 8 9 10 10 10 10 11 11 10 11 13 15 15 12 11 10 9 10 10 9 8 8 8 10 13 14 14 14 14 14 13 13 13 14 15 16 17 17 18 18 18 17 17 17 17 17 18 18 19 20 20 22 22 24 24 24 26 24 21 20 18 19 22 23 26 30 32 33 33 34 34 33 32 30 27 26 25 24 25 26 27 28
10 9 9 8 8 8 9 10 10 11 11 10 11 10 11 12 13 14 12 9 8 8 9 10 10 10 8 8 11 13 14 15 15 14 14 14 13 13 14 15 16 17 17 17 17 17 16 15 15 15 16 16 17 18 19 20 21 21 21 22 23 21 22 21 18 18 20 22 26 27 28 31 33 33 34 34 33 30 26 23 21 21 20 19 20 22 24 25
11 10 9 9 10 10 11 11 12 12 12 12 11 11 11 11 13 13 9 6 6 7 9 10 11 11 9 10 13 15 16 16 14 13 13 13 13 13 14 15 16 16 17 16 17 17 15 13 12 14 15 16 17 18 19 19 18 18 17 19 19 18 18 20 22 23 24 26 28 27 26 28 30 30 30 29 28 25 21 18 17 17 17 17 18 20 21 23
11 11 11 11 11 12 12 13 14 15 14 14 13 12 12 12 12 11 6 3 6 9 10 10 12 11 11 15 16 16 16 14 13 14 13 13 14 14 15 15 15 15 15 15 15 14 12 11 13 14 15 17 17 16 16 17 16 15 15 16 17 19 20 23 26 27 28 28 24 21 20 21 23 22 23 23 22 20 17 15 14 14 14 15 17 19 20 21
12 12 11 11 11 11 12 14 15 17 17 16 15 13 12 12 11 9 4 1 5 11 11 11 13 13 14 17 17 17 15 12 14 15 14 15 16 15 15 14 14 14 13 14 13 10 10 13 14 15 16 16 14 14 16 18 18 17 15 16 19 23 23 23 25 27 29 24 17 16 13 12 16 15 16 19 19 18 15 13 12 12 14 16 18 20 21 21
11 11 12 12 12 12 12 12 14 16 17 17 16 15 14 13 11 8 3 2 3 12 14 14 16 16 17 17 16 16 13 12 16 16 16 17 16 15 14 13 13 13 13 13 9 8 13 15 15 16 14 11 12 17 19 18 19 18 17 20 22 23 23 24 26 27 26 21 20 21 12 11 17 15 14 16 17 16 13 11 12 13 15 17 19 20 20 19
10 10 11 12 13 13 13 12 13 15 16 17 16 15 15 13 11 9 3 2 5 14 15 16 18 17 18 17 17 17 13 14 16 15 16 17 15 14 14 14 13 13 13 11 11 13 16 16 15 13 9 10 16 20 19 17 19 20 21 22 22 24 27 29 31 29 27 27 26 21 13 14 15 13 12 13 13 13 12 12 13 15 17 19 19 19 19 17
9 9 10 12 13 14 14 12 11 13 15 16 16 15 14 12 10 9 2 3 7 14 15 17 18 16 17 17 18 17 14 15 15 14 16 15 13 14 14 13 13 13 9 11 17 18 16 15 12 10 10 16 20 19 17 19 21 21 21 22 25 30 31 30 29 25 24 22 18 13 7 9 10 10 11 11 12 13 13 14 15 17 18 19 19 18 17 16
8 9 10 12 13 14 13 11 10 12 14 16 16 15 13 11 10 7 3 2 9 13 14 16 15 14 14 14 15 16 14 14 15 16 16 14 14 15 14 12 13 12 8 13 20 16 14 14 9 10 16 20 19 16 18 20 19 19 22 27 30 28 26 24 22 20 16 11 9 11 4 4 7 9 9 10 12 14 15 17 18 19 19 19 18 17 16 16
7 8 10 12 13 13 13 11 11 13 15 16 16 14 12 9 9 5 3 4 10 12 13 14 13 13 12 11 13 14 13 13 14 15 15 14 14 15 13 11 12 11 7 13 18 15 13 10 7 14 21 20 16 16 19 19 19 24 27 28 26 23 22 20 16 14 9 3 5 11 6 3 5 7 8 9 11 13 16 18 19 20 20 20 19 18 18 17
7 8 10 11 12 13 13 12 13 14 16 16 14 13 11 7 8 5 3 7 10 11 12 11 12 14 13 13 15 14 13 13 13 13 13 12 12 13 14 13 15 14 12 17 20 17 12 6 8 20 21 18 16 16 19 20 24 27 23 24 24 20 18 12 8 8 4 2 5 11 12 7 6 7 11 12 13 14 16 18 20 22 21 21 20 19 19 18
7 9 10 11 12 13 13 13 15 15 15 15 13 12 9 5 8 8 5 7 9 11 12 12 13 15 15 15 16 15 13 14 16 16 16 16 16 19 20 19 23 23 21 24 24 19 13 7 13 23 20 18 19 21 24 24 26 23 19 25 22 13 10 6 3 3 1 3 6 13 19 13 11 13 15 16 17 17 16 17 20 22 22 22 21 20 19 17
8 9 10 11 12 12 13 14 16 15 15 14 12 11 7 4 6 8 8 8 9 11 12 12 14 14 14 15 16 17 14 14 16 16 17 17 16 21 21 19 24 25 21 23 24 23 17 9 17 24 19 20 25 27 28 27 24 21 22 26 16 5 6 4 3 3 3 8 15 22 20 11 10 14 16 17 18 17 17 18 20 22 23 22 21 19 16 14
9 9 10 11 12 12 14 15 16 15 15 13 11 8 6 7 6 7 9 10 11 12 10 10 13 13 14 16 17 18 16 15 16 14 15 15 15 20 20 17 23 26 23 21 22 22 15 10 19 22 16 20 25 24 24 23 19 18 21 21 14 8 5 3 4 4 6 14 22 20 10 6 9 14 17 20 20 19 19 19 20 22 23 21 19 15 13 16
8 9 11 11 12 12 14 15 15 14 13 11 9 6 9 9 7 8 10 10 11 13 10 8 11 12 13 16 18 19 17 15 14 13 15 16 18 21 20 19 25 27 25 23 19 17 14 12 15 16 15 21 23 19 20 19 15 17 20 20 18 13 5 6 8 10 11 13 13 8 4 9 13 15 19 20 20 20 19 19 20 21 20 18 15 13 18 25
8 10 10 10 11 13 14 14 13 11 10 8 6 11 15 12 9 10 10 11 11 14 12 9 10 14 15 16 18 19 17 14 13 14 16 17 18 20 19 21 26 26 25 24 17 14 15 14 12 14 18 21 19 16 17 18 18 19 21 21 19 12 7 7 9 11 10 6 6 7 10 15 16 16 19 18 19 20 18 19 19 19 17 15 13 18 26 34
9 9 9 10 11 12 13 12 11 8 8 7 8 16 17 13 11 11 10 11 11 13 15 13 13 16 18 19 19 19 16 13 13 15 16 16 16 17 17 20 24 24 23 21 15 13 15 13 13 19 21 18 15 12 13 17 22 22 19 20 18 9 5 7 6 8 6 1 7 12 14 17 14 12 16 17 18 19 18 18 18 16 15 15 18 26 34 42
8 8 9 10 11 12 11 10 9 8 7 7 13 19 16 13 12 11 10 12 12 13 16 16 15 16 19 20 20 20 17 14 15 15 15 15 15 14 16 20 22 20 19 18 15 15 15 11 13 21 20 14 11 9 12 18 23 24 20 20 19 8 5 10 7 5 4 2 6 11 14 15 9 8 16 18 18 17 17 17 15 15 17 21 26 33 40 46
7 8 9 10 10 10 9 9 11 10 8 10 16 18 14 13 12 11 11 12 12 14 16 17 16 16 18 19 19 19 17 14 16 16 14 16 15 13 17 20 19 16 17 17 16 18 14 8 12 20 18 13 10 10 15 19 24 26 21 21 21 11 8 14 10 5 5 3 3 8 11 8 6 12 18 17 15 14 16 16 16 20 25 29 33 39 45 48
7 8 8 9 9 8 10 12 13 10 9 14 18 16 13 13 12 12 13 13 13 15 16 16 16 16 17 18 17 18 15 12 15 16 14 16 16 14 16 18 17 16 17 18 18 19 14 9 14 20 19 14 10 11 15 19 25 28 23 22 23 18 14 15 11 6 5 3 2 4 6 6 10 18 19 15 13 13 15 19 22 28 32 34 37 42 46 50
7 8 8 9 9 11 13 13 11 9 12 17 17 15 14 13 13 14 14 14 14 15 15 16 16 16 17 17 17 18 15 10 13 15 15 17 16 14 15 16 17 17 18 18 20 19 14 12 19 21 19 15 8 7 13 18 24 26 21 20 23 22 19 11 6 5 6 6 6 5 5 8 11 16 20 20 20 20 21 24 27 30 32 33 37 42 48 54
7 8 10 10 11 13 12 10 11 13 15 17 15 15 14 13 14 15 15 15 14 14 15 16 16 17 18 17 17 18 16 11 11 14 16 17 15 14 14 16 17 18 19 19 20 19 14 15 21 19 15 12 5 6 14 17 22 24 19 20 24 22 17 9 4 9 13 13 11 8 6 7 9 15 24 29 31 31 29 29 29 30 31 33 38 46 53 56
9 11 12 12 13 13 10 10 13 14 15 16 15 15 14 14 15 15 15 15 15 14 14 16 16 16 18 17 16 18 17 12 11 14 16 14 14 14 14 15 17 18 19 19 19 18 14 16 22 18 13 11 6 9 14 16 23 25 20 25 26 19 15 11 6 11 14 9 7 7 4 6 12 21 29 35 37 35 32 32 31 32 33 36 43 53 58 56
11 13 13 12 13 11 9 13 15 14 15 15 14 14 14 14 14 14 15 15 15 15 14 16 17 17 17 17 16 18 17 12 10 13 14 13 13 13 13 15 17 17 19 19 18 17 14 16 21 15 10 10 9 11 18 22 26 24 21 26 24 16 15 14 12 13 9 4 9 10 7 11 20 28 34 38 38 36 34 34 34 35 37 42 53 61 59 55
10 12 13 13 13 10 11 15 15 13 15 14 13 14 14 14 14 15 15 16 16 16 15 16 17 17 17 18 17 18 17 13 11 12 13 12 13 12 12 14 17 17 19 18 18 17 14 17 19 12 5 4 5 9 17 24 27 24 23 25 20 15 18 18 15 12 7 10 17 13 11 20 29 32 36 39 39 39 38 37 38 38 40 49 59 61 56 54
9 11 12 14 14 12 13 16 15 14 14 12 13 15 14 14 15 15 16 17 17 17 16 16 17 17 17 17 17 18 17 14 13 12 12 12 13 11 11 14 16 18 18 18 19 17 14 16 18 14 8 3 5 9 14 20 23 24 24 22 16 16 20 20 15 8 8 17 20 14 16 29 34 34 37 39 39 39 39 40 41 40 44 55 59 55 52 52
10 11 11 11 12 13 14 15 14 13 12 12 14 16 16 16 15 15 16 17 17 17 16 16 17 17 17 17 17 17 16 14 13 13 12 12 13 10 10 13 16 17 17 18 19 18 16 16 18 17 12 5 6 12 16 18 21 22 20 16 14 18 21 21 16 11 13 16 16 19 25 32 36 37 38 38 39 40 42 43 42 43 51 57 55 51 51 51
11 12 12 11 12 12 13 14 13 13 13 13 15 17 16 16 16 16 17 17 17 18 16 17 18 18 18 18 17 16 14 13 12 12 11 11 11 10 10 12 15 17 17 18 19 19 18 18 20 19 11 4 9 16 18 19 19 17 13 11 15 21 21 20 16 14 16 17 20 29 33 35 39 41 39 40 41 42 43 42 43 48 54 54 51 51 51 48
12 13 13 12 12 12 12 13 13 12 13 14 16 17 17 17 17 17 17 18 18 18 17 17 18 18 18 18 18 17 15 13 11 10 10 9 9 9 11 11 13 16 17 17 19 20 20 20 22 21 12 6 12 19 20 18 13 10 9 11 17 22 19 18 16 16 20 24 28 34 37 40 41 40 40 40 39 39 40 42 47 51 51 50 50 50 47 44
12 13 13 12 12 13 13 13 12 12 13 15 16 17 18 18 18 18 17 18 18 18 17 17 18 19 18 18 18 16 15 14 11 9 10 9 8 9 11 12 13 14 16 19 20 21 21 21 22 22 16 11 16 23 21 14 8 6 7 11 19 21 18 18 19 21 26 31 34 37 41 42 40 38 39 38 36 40 44 47 50 50 49 50 50 46 42 40
12 12 12 11 11 13 13 13 12 11 13 15 17 18 18 19 19 18 18 19 19 18 18 17 18 18 17 17 17 15 15 13 10 9 10 9 8 9 11 13 13 14 18 21 21 22 23 22 23 23 19 15 20 26 22 13 7 5 8 16 23 23 21 21 21 23 30 35 39 40 41 41 38 37 37 37 40 46 50 50 50 50 50 49 45 41 40 39
12 12 13 12 11 12 12 12 12 12 13 16 17 18 19 19 19 19 19 19 19 19 18 17 17 17 16 16 15 14 14 12 9 8 10 8 7 9 12 14 14 16 20 21 22 23 24 24 24 23 22 20 24 27 20 10 6 6 12 20 24 22 23 24 23 26 32 36 40 41 40 38 34 34 37 43 48 50 50 50 50 50 49 45 41 39 39 40
Wind_Direction
86 79 72 65 59 55 51 48 47 46 45 46 45 46 48 49 48 45 44 41 38 35 30 37 39 30 17 351 340 330 321 321 323 323 318 308 301 297 290 283 276 272 271 274 276 276 276 274 273 274 271 271 273 275 274 271 269 267 265 265 268 272 278 285 289 289 288 288 288 285 282 281 281 279 276 274 274 277 281 286 290 290 286 282 280 280 280 280
78 73 68 63 58 54 50 47 44 42 38 37 36 35 36 37 36 31 30 29 24 16 6 1 1 354 340 326 322 315 311 314 314 312 310 305 300 296 289 281 276 275 274 274 274 273 272 271 270 269 269 269 271 273 272 272 270 268 268 269 272 277 282 286 287 286 285 286 286 284 282 282 282 281 279 278 280 281 284 290 291 286 282 279 280 281 282 283
71 66 62 58 57 54 52 48 45 43 38 34 33 30 30 29 24 20 20 20 18 10 354 342 335 325 319 316 314 309 304 306 307 303 302 302 298 291 286 283 282 281 280 280 278 276 274 273 271 269 269 268 269 271 271 271 271 270 270 272 277 282 283 284 285 285 285 285 285 284 283 284 284 283 281 282 282 285 290 292 286 281 279 280 282 284 286 286
69 65 61 57 55 53 49 47 45 42 38 34 31 28 26 23 18 14 13 11 9 4 350 336 320 310 308 309 310 308 307 309 309 302 299 303 299 292 287 283 283 282 283 283 280 279 277 275 273 271 270 270 271 272 272 274 273 272 272 276 281 282 280 281 283 283 284 285 285 284 285 285 285 284 284 284 285 290 293 287 280 280 281 284 285 288 290 290
69 66 62 57 53 48 44 42 40 38 35 32 28 26 22 18 13 9 8 5 2 358 350 336 322 312 308 308 307 306 309 310 309 303 299 299 297 295 293 290 289 288 288 287 284 281 279 277 275 273 273 274 275 275 275 276 274 274 276 278 280 280 280 281 282 283 284 285 285 285 286 287 286 285 286 285 289 295 290 281 281 284 286 288 289 290 290 290
61 58 55 50 45 41 38 34 32 29 26 24 22 21 17 14 10 4 2 359 355 353 349 339 326 318 313 312 309 305 305 304 303 302 298 295 293 292 293 293 292 291 291 289 285 282 280 278 277 276 276 277 278 278 278 277 275 276 278 279 279 280 281 282 283 283 284 285 285 285 286 286 285 285 285 287 293 293 283 280 283 286 290 291 290 287 284 285
45 43 38 34 31 28 24 22 20 15 12 10 7 7 6 6 4 360 357 353 349 347 344 338 328 322 317 313 308 303 301 300 301 301 299 295 291 290 290 291 291 290 290 288 285 282 280 278 277 278 279 280 281 280 279 278 278 278 280 281 281 281 282 283 284 284 284 284 283 284 286 286 285 285 286 290 294 287 281 282 284 287 292 293 290 282 276 274
28 25 18 13 11 7 4 3 0 358 355 353 351 351 350 350 351 351 349 346 344 342 339 333 325 319 314 311 306 298 295 296 296 297 296 293 290 290 289 289 291 291 289 288 286 283 280 279 279 280 282 284 283 282 283 283 282 282 284 285 284 284 284 283 284 286 285 282 281 284 288 288 287 287 289 293 291 283 283 283 283 288 292 290 283 275 270 266
15 8 2 357 353 348 345 343 341 340 338 339 339 338 337 338 339 339 339 338 336 336 335 330 323 319 313 309 305 297 295 294 292 291 291 289 289 289 289 289 290 291 289 287 286 283 281 281 281 281 283 285 286 287 287 287 287 288 290 288 287 286 286 286 287 288 288 284 281 284 289 289 288 289 293 294 287 283 284 282 283 288 289 283 275 272 269 266
2 356 351 345 340 336 334 332 329 328 327 327 327 327 327 327 327 328 329 329 327 326 329 327 324 321 314 309 304 299 300 297 291 290 289 286 286 286 287 287 287 288 286 284 282 281 282 283 283 283 283 286 288 291 290 290 290 291 292 290 288 288 288 289 289 290 289 287 286 287 289 289 288 291 293 290 282 280 281 279 281 284 282 278 274 271 268 265
350 344 340 334 329 326 326 324 322 321 320 320 319 318 318 317 318 318 318 319 318 317 320 322 321 319 314 310 304 300 302 299 294 293 291 287 285 285 286 287 287 286 285 284 282 281 283 285 287 288 289 290 292 294 293 292 291 292 293 292 291 289 289 290 291 291 291 290 290 289 288 287 288 288 286 281 277 277 276 275 276 276 276 276 274 269 265 264
343 338 334 329 324 321 321 323 324 321 318 316 314 313 312 311 309 308 308 309 309 310 314 316 316 315 313 311 305 302 302 298 295 294 292 289 287 286 287 287 287 286 286 287 286 286 287 289 291 293 295 294 295 296 294 293 293 293 294 294 292 290 291 292 294 294 293 294 294 292 290 288 286 285 285 285 282 278 275 273 272 272 274 275 271 266 263 264
347 343 342 340 334 328 330 336 335 331 326 321 318 317 316 314 310 307 306 305 304 306 309 311 312 311 310 308 304 303 301 298 297 295 291 288 286 286 287 288 289 289 289 289 289 289 290 292 294 296 297 297 298 297 294 294 294 295 296 295 294 294 295 296 297 298 297 298 296 293 291 287 285 289 292 293 289 283 278 275 273 273 275 274 269 265 264 266
351 349 350 352 353 349 344 346 344 340 339 334 331 329 324 319 313 310 308 306 306 306 307 310 310 309 306 303 301 301 301 300 298 295 292 291 289 288 286 286 287 288 288 288 289 289 290 292 293 296 297 298 300 297 296 297 296 297 297 295 296 299 299 299 300 300 299 298 293 290 289 285 286 291 294 293 289 284 279 276 275 277 277 274 269 264 264 268
348 348 346 348 355 355 349 346 343 340 338 336 334 331 326 322 319 315 312 311 310 310 310 311 311 309 305 301 300 301 301 300 298 296 294 293 292 292 292 290 288 288 288 288 288 289 290 291 294 298 299 300 300 299 300 299 297 299 297 296 298 299 298 299 301 300 301 299 292 290 289 286 285 287 290 290 287 282 277 276 278 280 279 274 266 262 265 273
339 340 337 334 336 338 339 338 335 334 333 333 331 328 326 327 328 327 325 322 319 317 316 315 314 312 305 301 301 302 302 302 301 298 296 293 291 294 297 297 296 294 294 294 293 293 294 296 298 301 301 303 302 303 302 298 298 299 297 297 299 299 300 301 303 304 303 299 293 290 286 285 288 290 290 290 287 282 278 277 278 278 275 270 266 266 271 275
332 334 333 328 324 324 325 324 325 326 328 328 327 326 327 328 332 334 334 332 328 326 324 322 321 316 309 306 306 306 306 308 307 305 301 297 296 297 299 300 299 298 298 298 298 298 299 300 301 303 304 305 304 304 302 299 301 301 299 299 299 300 301 302 306 307 304 299 295 292 289 289 291 290 290 291 288 283 279 277 275 273 271 269 269 270 273 273
326 324 320 318 316 315 315 316 320 322 325 326 326 330 332 336 339 337 337 336 332 329 327 325 324 320 311 306 307 306 307 310 310 310 308 304 301 300 300 300 299 299 299 300 300 301 302 302 304 306 304 302 299 299 298 298 300 300 300 300 301 302 302 305 310 308 305 302 298 296 294 294 293 291 292 292 290 286 282 278 276 274 273 273 273 272 272 270
329 322 317 319 322 319 317 319 322 324 326 326 330 335 337 343 347 344 342 339 334 331 329 328 327 324 315 310 312 315 317 317 314 314 314 312 309 305 303 301 302 302 303 304 304 304 304 305 306 304 302 300 298 298 297 297 298 298 299 300 302 302 303 309 312 308 307 304 301 300 299 298 296 295 294 292 290 288 283 280 278 277 277 276 275 272 269 266
359 356 350 345 339 331 330 330 330 331 330 331 334 335 338 346 350 348 345 342 338 338 340 341 341 339 332 325 327 330 330 327 323 321 320 319 315 312 310 308 308 307 306 306 305 305 305 306 307 305 304 303 302 302 302 301 300 300 301 301 303 304 307 313 311 307 309 306 304 305 303 300 298 296 295 292 290 287 285 284 283 282 280 277 274 269 264 259
18 16 11 5 357 351 350 345 341 340 337 337 337 338 344 349 349 347 344 343 345 352 359 2 3 1 353 347 343 336 333 331 328 325 323 321 317 315 312 308 309 308 307 307 306 308 308 308 310 307 306 307 307 307 306 305 304 304 305 305 306 308 311 313 312 311 313 307 304 306 304 300 298 296 295 293 291 290 290 290 290 288 283 278 272 266 260 254
21 20 17 15 12 10 7 359 353 350 346 344 344 345 347 346 344 343 342 347 357 11 17 16 12 6 359 353 343 334 332 332 328 327 325 321 318 315 311 309 309 310 310 311 311 313 314 315 315 313 312 312 313 313 311 310 309 310 311 309 310 315 316 315 316 316 312 307 305 306 304 299 296 295 294 293 293 294 296 295 293 289 282 275 267 259 253 249
22 22 23 22 21 21 17 13 9 3 356 351 350 348 344 340 339 341 346 2 23 28 21 17 8 357 349 340 335 331 332 332 330 330 327 324 321 318 316 316 315 316 317 317 318 321 324 326 325 322 320 318 319 319 316 315 317 320 319 315 317 324 324 318 316 315 311 308 308 307 304 296 293 292 292 292 295 297 299 297 291 283 275 266 257 250 245 242
22 24 25 24 24 25 25 24 20 14 7 2 357 351 345 341 341 345 351 35 51 33 15 8 359 349 340 336 335 335 335 334 335 336 333 331 329 327 327 326 325 325 324 326 331 333 339 340 333 328 323 322 325 326 325 325 328 331 327 323 323 326 324 317 314 313 310 311 311 312 309 295 288 289 290 293 297 299 298 293 285 272 259 251 245 240 236 234
18 22 23 23 23 23 24 24 20 16 13 10 6 360 353 348 349 353 349 135 54 20 5 357 353 348 343 342 342 342 342 341 340 341 341 340 339 337 338 336 336 338 338 340 345 351 351 342 331 327 323 325 332 338 338 333 331 333 331 328 326 324 322 318 317 315 314 317 317 320 323 296 288 290 290 294 296 295 292 283 271 255 243 236 233 231 229 229
12 15 16 16 11 8 9 11 14 12 10 9 6 3 359 355 358 2 357 169 21 2 359 354 352 350 346 347 350 348 348 347 346 348 348 347 347 347 351 352 351 351 349 351 3 3 349 339 332 331 332 340 348 347 345 339 334 336 334 330 327 325 323 321 319 315 312 311 305 308 306 280 289 293 287 290 290 286 281 268 252 239 233 227 225 226 226 226
4 5 8 5 357 353 349 352 2 3 3 4 1 0 359 358 3 360 355 145 357 355 359 356 355 354 350 352 355 355 356 352 349 351 352 354 358 360 2 3 0 356 353 5 13 358 344 339 339 345 356 358 350 350 351 345 338 335 333 331 329 326 322 318 315 310 306 303 304 309 291 268 283 288 285 285 277 274 265 250 239 230 226 223 223 224 225 228
355 357 358 353 348 345 340 340 349 353 355 356 356 357 356 356 1 357 20 121 356 353 358 357 357 357 355 355 354 359 3 357 353 357 0 4 8 8 6 5 3 359 4 15 6 353 345 346 354 12 10 353 351 356 352 341 336 335 333 330 326 322 318 316 314 310 308 305 313 332 304 263 277 281 289 283 261 257 251 242 237 230 227 224 223 226 227 230
351 351 350 346 345 346 346 346 345 347 349 350 351 352 351 354 355 359 80 81 352 355 358 357 1 3 2 0 356 1 8 5 4 5 4 4 7 8 6 3 5 8 19 13 2 354 352 359 17 19 359 350 352 352 344 342 341 337 331 327 325 323 322 323 320 316 316 308 327 356 348 244 287 291 292 281 258 254 249 244 238 231 229 226 225 228 229 231
350 348 344 342 345 351 356 357 350 347 346 345 346 348 350 353 353 12 92 3 352 1 360 360 8 11 12 13 8 9 14 14 14 10 4 2 2 2 2 5 12 19 21 10 10 9 5 16 29 4 354 351 352 349 348 351 344 336 332 330 330 332 331 327 322 326 332 322 4 16 9 265 290 305 295 278 267 267 259 249 242 235 231 229 229 230 232 235
347 342 339 340 345 350 354 354 349 345 343 343 344 348 349 351 7 47 73 352 355 2 5 12 16 16 18 18 18 17 13 13 13 9 5 3 356 354 3 11 12 12 3 6 19 21 17 42 20 0 357 356 357 355 353 348 342 338 336 338 340 339 338 333 338 358 2 312 5 12 353 312 263 285 298 289 282 278 267 254 247 242 237 234 234 235 238 242
343 339 337 339 341 343 347 348 345 343 343 344 346 351 350 357 29 49 34 356 359 2 11 23 20 19 18 15 16 16 13 12 10 6 6 6 1 2 11 16 13 11 3 2 10 14 22 44 10 1 1 4 1 351 347 347 346 345 346 352 353 347 349 353 350 356 276 278 328 332 328 309 268 280 297 297 290 279 267 256 248 244 242 240 239 240 243 249
331 334 333 335 336 338 343 343 343 343 343 346 351 354 5 47 47 39 27 19 17 11 17 25 19 16 14 13 15 15 16 15 11 10 9 7 5 10 18 20 16 15 9 2 4 8 17 20 2 3 8 8 357 347 348 350 351 356 2 7 14 22 360 343 305 322 285 292 308 313 314 299 284 295 300 303 298 284 272 260 248 244 242 241 242 244 251 266
317 324 327 332 332 336 341 341 344 343 341 350 359 2 40 70 61 43 37 35 30 23 24 26 21 15 11 13 13 13 15 15 13 12 9 6 6 11 18 18 12 12 10 9 9 10 11 356 356 7 14 1 351 349 352 351 355 8 15 19 22 19 6 292 291 317 294 301 311 315 308 279 297 303 300 302 299 289 276 260 249 245 242 242 245 253 277 302
314 321 326 328 330 336 340 341 343 342 345 357 6 36 74 75 60 51 43 39 35 27 22 20 18 17 18 17 14 12 13 15 15 11 8 10 12 14 16 12 7 7 9 11 11 9 2 351 360 13 9 354 351 358 0 2 12 14 14 14 5 356 329 278 290 295 296 307 316 319 299 294 304 303 302 303 296 287 274 259 251 244 242 245 255 281 311 322
320 325 327 328 335 340 339 342 344 347 359 5 23 66 78 77 63 55 43 35 33 25 21 17 12 14 19 20 19 15 13 17 17 13 13 14 14 16 15 9 5 4 7 8 9 6 358 1 20 19 2 356 1 11 14 21 22 11 11 10 357 349 335 312 297 297 308 312 308 317 314 312 317 313 309 304 293 284 270 258 250 243 247 258 282 311 325 329
329 331 334 339 343 341 343 351 354 5 21 24 64 78 78 76 65 56 44 34 29 22 19 19 14 12 13 16 18 16 14 19 18 15 19 15 11 14 13 7 4 2 5 9 13 10 356 2 26 17 2 4 14 21 26 26 16 10 13 6 356 356 353 345 322 312 333 311 294 310 312 318 326 316 307 305 296 283 264 253 249 252 267 284 306 323 330 332
341 343 346 348 347 351 1 9 17 35 43 53 79 82 78 73 64 53 43 34 28 21 19 21 20 14 12 13 14 12 12 20 17 15 23 17 9 11 9 5 3 3 9 16 18 12 359 357 19 16 7 10 21 26 24 16 10 10 11 4 5 10 327 338 339 315 328 313 294 309 317 324 330 309 309 313 307 286 264 259 265 281 295 305 318 328 331 332
349 352 354 356 2 11 24 37 46 55 62 69 80 82 76 71 62 51 43 34 27 22 19 22 20 16 15 14 14 12 13 19 16 16 23 16 8 9 6 4 9 12 17 22 19 13 8 358 7 13 14 12 17 28 22 9 2 4 5 6 13 18 333 329 327 296 298 301 300 316 322 333 348 336 333 329 314 287 271 276 290 301 307 314 323 328 329 328
358 4 8 16 29 42 52 57 58 61 66 72 79 81 76 69 56 46 40 31 27 23 19 20 19 16 16 15 15 16 17 20 16 17 21 14 9 9 5 9 21 24 21 23 19 14 20 13 358 8 20 20 22 31 19 3 359 1 4 10 11 7 350 333 320 303 296 287 302 316 313 325 345 353 356 351 333 308 294 298 302 306 310 316 321 324 325 325
15 23 34 43 55 64 65 64 63 62 67 74 79 77 72 63 51 44 35 28 26 21 19 19 17 16 15 16 17 17 18 20 16 16 14 11 12 10 9 19 29 27 22 23 20 16 24 17 360 5 19 22 32 32 5 358 360 0 4 11 5 358 356 349 328 328 323 307 297 287 295 305 322 351 0 354 343 331 320 313 309 308 309 312 317 320 321 322
41 51 61 65 66 66 68 69 65 64 71 76 75 70 65 56 47 40 31 27 23 19 19 18 16 15 14 15 16 15 16 17 16 15 11 11 16 16 22 30 29 25 23 23 20 17 21 15 5 7 18 21 28 3 354 355 357 357 359 360 356 357 1 357 319 317 320 315 300 287 285 279 294 332 342 340 338 335 327 320 312 307 307 309 313 318 321 323
67 75 75 72 67 66 67 70 68 68 73 73 68 64 58 49 43 35 27 25 20 18 20 17 16 15 13 14 14 13 15 13 12 13 11 13 19 25 36 36 27 26 25 23 20 18 21 15 6 7 16 16 5 347 346 348 353 354 352 350 353 3 5 358 343 321 315 316 326 318 287 273 298 318 326 330 333 332 325 318 310 305 305 308 315 321 325 327
79 82 79 71 67 67 68 69 68 67 67 67 63 58 51 44 39 31 26 23 19 19 19 16 16 14 13 13 12 12 14 16 15 13 13 17 24 33 43 35 28 27 25 25 23 20 25 20 10 9 13 5 354 347 343 343 350 353 347 345 350 1 1 0 358 337 314 303 335 323 278 292 313 319 324 327 328 326 321 315 308 305 307 313 321 327 328 328
80 81 77 69 66 65 69 69 65 60 61 61 58 52 45 39 34 28 24 21 19 18 17 17 16 13 12 11 9 11 14 19 22 15 15 22 30 40 42 33 29 25 24 26 23 21 29 25 20 28 38 353 322 330 334 334 340 342 337 339 346 354 355 355 351 338 311 310 320 309 284 305 317 320 322 324 323 322 318 313 310 308 311 319 325 327 325 325
79 78 76 74 70 63 65 68 63 56 55 52 50 48 41 34 31 26 23 21 17 16 15 16 14 11 10 8 8 9 11 17 24 19 18 24 32 41 37 30 28 24 24 23 19 21 26 22 23 29 28 355 309 327 331 328 329 330 331 335 346 352 349 349 349 342 324 320 316 309 308 313 317 320 320 320 320 318 315 313 311 310 314 322 325 323 322 322
76 77 77 78 74 65 62 65 62 53 46 41 45 46 40 33 28 24 23 20 16 14 13 12 11 10 9 7 8 9 9 15 19 19 22 24 29 37 32 27 28 24 21 19 16 17 16 13 19 21 17 10 345 344 338 329 325 325 328 336 347 345 341 346 348 338 334 326 310 315 323 318 319 322 321 320 319 316 314 313 311 313 318 322 322 321 322 322
80 80 77 75 74 68 62 60 57 49 41 39 44 45 38 31 27 23 21 19 15 14 12 10 9 8 7 6 7 8 10 14 15 18 25 25 28 34 28 25 25 21 19 16 11 13 13 8 9 13 19 5 347 347 340 332 326 323 329 341 342 338 336 343 344 329 329 326 313 321 325 320 321 323 321 319 318 314 313 311 310 315 318 319 320 321 323 323
82 80 74 68 67 66 58 54 52 45 38 38 41 41 35 28 26 22 19 17 14 12 11 9 8 7 6 5 5 6 10 13 18 23 26 30 35 32 27 27 23 18 15 11 9 13 12 6 1 7 15 355 348 352 345 335 326 321 330 339 338 334 331 336 337 324 322 323 321 324 323 320 321 321 317 315 313 309 308 308 311 316 318 320 321 323 324 324
79 75 68 56 54 59 54 49 48 38 33 36 37 36 32 26 24 21 17 15 13 11 10 8 6 6 4 2 3 4 6 10 19 27 28 35 42 32 29 29 22 16 12 9 10 11 9 6 1 1 5 360 352 353 347 338 333 324 316 326 334 335 333 333 332 326 324 324 324 324 322 321 321 318 313 312 309 308 310 312 316 320 322 323 323 324 325 326
73 69 64 44 40 54 51 44 41 29 27 35 35 31 29 24 21 18 15 12 10 10 9 6 5 3 1 1 2 3 4 7 14 24 24 30 38 33 28 23 17 13 10 9 9 9 8 7 1 357 0 359 352 351 349 344 340 316 303 324 335 337 332 327 322 322 325 325 324 323 322 321 319 315 312 312 312 313 316 318 321 323 324 324 324 326 327 328
68 64 61 43 35 51 50 37 32 25 26 34 31 27 25 21 17 15 13 11 8 7 7 4 3 2 0 1 1 360 2 4 10 19 18 20 28 30 23 18 13 9 8 8 7 6 6 4 1 358 355 351 351 351 347 342 336 316 317 329 334 329 322 318 315 319 322 324 324 323 322 321 317 314 313 314 316 318 320 323 324 323 323 325 326 328 329 328